EW8360 Weather Reports


time (UTC)temp
C
wind
direction
speed
KPH
gust
KPH
rain 1hr
cm
rain 24hr
cm
rain mn
cm
humidity
%
barometer
mb
20260510051625 15 241 1.6 4.8 0.00 0.00 0.00 86 1012.0
20260510051124 15 232 1.6 8.0 0.00 0.00 0.00 86 1012.0
20260510050623 15 273 4.8 8.0 0.00 0.00 0.00 86 1012.1
20260510050123 15 261 0.0 8.0 0.00 0.00 0.00 86 1012.1
20260510045842 15 239 1.6 4.8 0.00 0.00 0.00 85 1012.1
20260510045123 15 255 3.2 4.8 0.00 0.00 0.00 85 1012.0
20260510044847 15 250 0.0 4.8 0.00 0.00 0.00 85 1012.1
20260510044124 15 260 0.0 4.8 0.00 0.00 0.00 85 1012.1
20260510043624 15 250 0.0 8.0 0.00 0.00 0.00 85 1012.0
20260510043123 15 256 3.2 8.0 0.00 0.00 0.00 85 1012.1
20260510042623 15 258 0.0 8.0 0.00 0.00 0.00 85 1012.0
20260510042123 15 253 1.6 8.0 0.00 0.00 0.00 85 1012.0
20260510041624 15 253 3.2 4.8 0.00 0.00 0.00 85 1011.9
20260510041123 15 256 0.0 4.8 0.00 0.00 0.00 85 1011.9
20260510040843 15 261 0.0 4.8 0.00 0.00 0.00 85 1011.8
20260510040343 15 247 3.2 9.7 0.00 0.00 0.00 86 1011.8
20260510035623 15 261 1.6 9.7 0.00 0.00 0.00 86 1011.7
20260510035123 15 266 1.6 4.8 0.00 0.00 0.00 85 1011.7
20260510034622 15 250 3.2 9.7 0.00 0.00 0.00 86 1011.6
20260510034123 15 263 0.0 9.7 0.00 0.00 0.00 86 1011.5
20260510033623 15 252 4.8 9.7 0.00 0.00 0.00 86 1011.5
20260510033345 15 257 0.0 4.8 0.00 0.00 0.00 85 1011.4
20260510032841 15 258 3.2 4.8 0.00 0.00 0.00 85 1011.4
20260510032122 15 245 1.6 4.8 0.00 0.00 0.00 85 1011.3
20260510031623 15 227 1.6 4.8 0.00 0.00 0.00 84 1011.2
20260510030621 16 222 3.2 4.8 0.00 0.00 0.00 85 1011.0
20260510030122 16 269 4.8 4.8 0.00 0.00 0.00 84 1011.1
20260510025622 16 244 1.6 4.8 0.00 0.00 0.00 84 1011.0
20260510025122 16 286 0.0 4.8 0.00 0.00 0.00 84 1011.0
20260510024620 16 261 1.6 8.0 0.00 0.00 0.00 83 1011.0
20260510024340 16 251 1.6 8.0 0.00 0.00 0.00 83 1010.9
20260510023621 17 241 1.6 4.8 0.00 0.00 0.00 82 1010.9
20260510023121 17 245 1.6 3.2 0.00 0.00 0.00 81 1010.7
20260510022620 17 80 0.0 4.8 0.00 0.00 0.00 81 1010.7
20260510022119 17 251 1.6 9.7 0.00 0.00 0.00 81 1010.7
20260510021619 17 248 1.6 9.7 0.00 0.00 0.00 80 1010.8
20260510021344 17 243 1.6 11.3 0.00 0.00 0.00 79 1010.8
20260510020619 17 238 1.6 11.3 0.00 0.00 0.00 79 1010.7
20260510020119 17 262 3.2 11.3 0.00 0.00 0.00 80 1010.6
20260510015619 17 242 4.8 9.7 0.00 0.00 0.00 79 1010.8
20260510014620 17 265 3.2 11.3 0.00 0.00 0.00 78 1010.7
20260510014118 17 260 1.6 11.3 0.00 0.00 0.00 79 1010.7
20260510013836 17 266 4.8 11.3 0.00 0.00 0.00 80 1010.8
20260510013120 17 83 3.2 11.3 0.00 0.00 0.00 80 1010.8
20260510012618 17 259 6.4 9.7 0.00 0.00 0.00 80 1010.8
20260510012338 18 267 6.4 11.3 0.00 0.00 0.00 80 1010.9
20260510011619 18 326 6.4 12.9 0.00 0.00 0.00 79 1010.9
20260510011119 18 256 4.8 12.9 0.00 0.00 0.00 79 1010.9
20260510010620 18 307 3.2 11.3 0.00 0.00 0.00 76 1010.9
20260510010119 19 255 3.2 11.3 0.00 0.00 0.00 75 1010.9
20260510005618 19 236 1.6 14.5 0.00 0.00 0.00 74 1010.9
20260510005119 19 243 0.0 19.3 0.00 0.00 0.00 73 1010.8
20260510004619 19 269 4.8 19.3 0.00 0.00 0.00 73 1010.7
20260510004117 19 261 4.8 16.1 0.00 0.00 0.00 72 1010.7
20260510003838 19 188 3.2 16.1 0.00 0.00 0.00 74 1010.5
20260510003344 20 222 4.8 20.9 0.00 0.00 0.00 72 1010.7
20260510002618 20 220 9.7 20.9 0.00 0.00 0.00 74 1010.7
20260510002341 20 249 6.4 16.1 0.00 0.00 0.00 71 1010.7
20260510001617 20 181 6.4 19.3 0.00 0.00 0.00 72 1010.8
20260510001119 20 215 8.0 19.3 0.00 0.00 0.00 72 1010.7
20260510000619 20 255 6.4 14.5 0.00 0.00 0.00 69 1010.7
20260510000341 20 280 4.8 14.5 0.00 0.00 0.00 69 1010.6
20260509235616 20 206 6.4 16.1 0.00 0.00 0.00 72 1010.5
20260509235118 20 217 8.0 16.1 0.00 0.00 0.00 70 1010.6
20260509234617 20 214 11.3 14.5 0.00 0.00 0.00 67 1010.5
20260509234118 20 252 3.2 16.1 0.00 0.00 0.00 66 1010.5
20260509233616 20 212 3.2 16.1 0.00 0.00 0.00 69 1010.4
20260509233118 20 199 6.4 12.9 0.00 0.00 0.00 70 1010.5
20260509232618 20 275 1.6 14.5 0.00 0.00 0.00 70 1010.5
20260509232336 20 304 6.4 14.5 0.00 0.00 0.00 71 1010.6
20260509231617 20 270 4.8 12.9 0.00 0.00 0.00 71 1010.6
20260509231115 20 353 6.4 12.9 0.00 0.00 0.00 71 1010.7
20260509230616 20 289 8.0 12.9 0.00 0.00 0.00 70 1010.6
20260509230117 20 252 4.8 12.9 0.00 0.00 0.00 71 1010.6
20260509225616 20 258 4.8 14.5 0.00 0.00 0.00 70 1010.7
20260509225115 20 246 3.2 19.3 0.00 0.00 0.00 71 1010.7
20260509224842 20 305 12.9 19.3 0.00 0.00 0.00 72 1010.8
20260509223615 20 274 3.2 22.5 0.00 0.00 0.00 69 1010.9
20260509223115 20 354 4.8 22.5 0.00 0.00 0.00 73 1010.9
20260509222617 20 287 6.4 22.5 0.00 0.00 0.00 72 1011.1
20260509222336 20 255 1.6 22.5 0.00 0.00 0.00 72 1011.1
20260509221615 20 319 12.9 16.1 0.00 0.00 0.00 71 1011.1
20260509221336 20 282 8.0 16.1 0.00 0.00 0.00 73 1011.2
20260509220616 20 260 9.7 22.5 0.00 0.00 0.00 70 1011.2
20260509220116 20 275 8.0 22.5 0.00 0.00 0.00 70 1011.2
20260509215840 20 351 8.0 16.1 0.00 0.00 0.00 71 1011.2
20260509215335 20 330 3.2 16.1 0.00 0.00 0.00 71 1011.2
20260509214615 20 348 6.4 16.1 0.00 0.00 0.00 71 1011.3
20260509214116 20 274 6.4 16.1 0.00 0.00 0.00 71 1011.3
20260509213115 20 320 11.3 20.9 0.00 0.00 0.00 71 1011.4
20260509212616 20 301 6.4 20.9 0.00 0.00 0.00 70 1011.5
20260509211613 20 313 8.0 16.1 0.00 0.00 0.00 71 1011.6
20260509211333 20 316 9.7 25.7 0.00 0.00 0.00 72 1011.5
20260509210614 20 311 11.3 25.7 0.00 0.00 0.00 74 1011.6
20260509210114 20 355 14.5 24.1 0.00 0.00 0.00 71 1011.7
20260509205613 20 312 9.7 16.1 0.00 0.00 0.00 70 1011.7
20260509205114 20 5 12.9 20.9 0.00 0.00 0.00 72 1011.6
20260509204839 20 340 4.8 20.9 0.00 0.00 0.00 74 1011.7
20260509204114 19 266 6.4 25.7 0.00 0.00 0.00 72 1011.8
20260509203113 19 356 14.5 19.3 0.00 0.00 0.00 73 1011.7
20260509202833 20 303 8.0 19.3 0.00 0.00 0.00 72 1011.7
20260509202332 20 349 11.3 24.1 0.00 0.00 0.00 74 1011.7
20260509201613 20 346 14.5 24.1 0.00 0.00 0.00 73 1011.7
20260509201112 20 357 8.0 24.1 0.00 0.00 0.00 72 1011.6
20260509200611 20 318 9.7 20.9 0.00 0.00 0.00 70 1011.7
20260509200113 20 259 9.7 20.9 0.00 0.00 0.00 70 1011.7
20260509195612 20 307 16.1 20.9 0.00 0.00 0.00 71 1011.7
20260509195112 20 350 6.4 16.1 0.00 0.00 0.00 70 1011.6
20260509194612 20 342 8.0 16.1 0.00 0.00 0.00 69 1011.7
20260509194335 20 254 6.4 20.9 0.00 0.00 0.00 71 1011.7
20260509193833 20 284 4.8 20.9 0.00 0.00 0.00 70 1011.8
20260509193112 20 338 14.5 19.3 0.00 0.00 0.00 70 1011.8
20260509192610 20 287 8.0 16.1 0.00 0.00 0.00 71 1011.9
20260509192330 20 348 12.9 20.9 0.00 0.00 0.00 71 1011.9
20260509191612 20 326 9.7 20.9 0.00 0.00 0.00 69 1012.0
20260509191111 20 338 9.7 19.3 0.00 0.00 0.00 71 1011.9
20260509190611 20 295 8.0 14.5 0.00 0.00 0.00 69 1011.9
20260509190111 20 301 3.2 14.5 0.00 0.00 0.00 70 1011.8
20260509185611 20 291 8.0 14.5 0.00 0.00 0.00 71 1011.9
20260509185110 20 342 6.4 16.1 0.00 0.00 0.00 71 1011.9
20260509184613 20 320 14.5 16.1 0.00 0.00 0.00 71 1011.9
20260509184111 20 307 11.3 22.5 0.00 0.00 0.00 73 1012.0
20260509183611 20 336 14.5 22.5 0.00 0.00 0.00 73 1012.0
20260509183110 20 335 9.7 14.5 0.00 0.00 0.00 72 1012.0
20260509182838 20 249 4.8 14.5 0.00 0.00 0.00 71 1012.0
20260509181611 20 320 6.4 12.9 0.00 0.00 0.00 71 1012.2
20260509181109 20 340 6.4 12.9 0.00 0.00 0.00 71 1012.1
20260509180111 20 357 8.0 12.9 0.00 0.00 0.00 73 1012.1
20260509175611 20 326 9.7 12.9 0.00 0.00 0.00 71 1012.2
20260509175109 20 316 6.4 12.9 0.00 0.00 0.00 72 1012.2
20260509174608 20 253 3.2 12.9 0.00 0.00 0.00 74 1012.1
20260509174112 20 66 4.8 11.3 0.00 0.00 0.00 73 1012.2
20260509173609 20 264 8.0 11.3 0.00 0.00 0.00 73 1012.1
20260509173108 20 296 6.4 12.9 0.00 0.00 0.00 72 1012.1
20260509172608 19 341 6.4 12.9 0.00 0.00 0.00 74 1012.1
20260509172111 19 21 8.0 11.3 0.00 0.00 0.00 74 1012.1
20260509171610 19 231 1.6 12.9 0.00 0.00 0.00 74 1012.1
20260509171109 19 287 3.2 12.9 0.00 0.00 0.00 75 1012.1
20260509170609 19 325 6.4 11.3 0.00 0.00 0.00 76 1012.2
20260509170108 19 323 6.4 11.3 0.00 0.00 0.00 76 1012.1
20260509165610 18 278 4.8 11.3 0.00 0.00 0.00 76 1012.2
20260509165108 18 326 6.4 9.7 0.00 0.00 0.00 77 1012.1
20260509164828 18 259 1.6 4.8 0.00 0.00 0.00 76 1012.1
20260509164107 18 298 1.6 8.0 0.00 0.00 0.00 74 1012.2
20260509163608 17 235 3.2 8.0 0.00 0.00 0.00 76 1012.2
20260509163110 17 270 3.2 11.3 0.00 0.00 0.00 79 1012.3
20260509162608 17 289 6.4 11.3 0.00 0.00 0.00 81 1012.4
20260509162324 17 266 3.2 8.0 0.00 0.00 0.00 82 1012.4
20260509161608 17 356 3.2 11.3 0.00 0.00 0.00 81 1012.4
20260509161108 17 266 6.4 11.3 0.00 0.00 0.00 83 1012.3
20260509160608 17 336 8.0 11.3 0.00 0.00 0.00 84 1012.3
20260509160106 16 270 1.6 11.3 0.00 0.00 0.00 83 1012.3
20260509155608 16 311 6.4 11.3 0.00 0.00 0.00 84 1012.2
20260509155109 16 294 4.8 4.8 0.00 0.00 0.00 83 1012.3
20260509154606 16 239 1.6 4.8 0.00 0.00 0.00 84 1012.3
20260509154106 16 264 1.6 8.0 0.00 0.00 0.00 85 1012.3
20260509153607 16 282 1.6 9.7 0.00 0.00 0.00 85 1012.4
20260509153108 16 256 1.6 9.7 0.00 0.00 0.00 86 1012.3
20260509152606 16 281 6.4 9.7 0.00 0.00 0.00 86 1012.4
20260509151607 16 258 0.0 4.8 0.00 0.00 0.00 87 1012.3
20260509151106 16 288 1.6 4.8 0.00 0.00 0.00 87 1012.2
20260509150830 16 265 0.0 4.8 0.00 0.00 0.00 87 1012.3
20260509150104 16 260 0.0 4.8 0.00 0.00 0.00 87 1012.3
20260509145606 16 267 3.2 4.8 0.00 0.00 0.00 88 1012.2
20260509145106 16 261 0.0 8.0 0.00 0.00 0.00 88 1012.3
20260509144604 16 268 1.6 8.0 0.00 0.00 0.00 88 1012.3
20260509144104 16 309 4.8 8.0 0.00 0.00 0.00 88 1012.3
20260509143605 16 276 3.2 4.8 0.00 0.00 0.00 88 1012.2
20260509143106 15 279 1.6 4.8 0.00 0.00 0.00 88 1012.3
20260509142605 15 278 0.0 0.0 0.00 0.00 0.00 88 1012.3
20260509142104 15 264 0.0 0.0 0.00 0.00 0.00 88 1012.2
20260509141606 15 269 0.0 3.2 0.00 0.00 0.00 89 1012.3
20260509141105 15 272 0.0 4.8 0.00 0.00 0.00 89 1012.3
20260509140600 15 275 1.6 4.8 0.00 0.00 0.00 89 1012.2
20260509140323 15 264 0.0 3.2 0.00 0.00 0.00 89 1012.2
20260509135603 15 268 0.0 3.2 0.00 0.00 0.00 88 1012.2
20260509135104 15 262 0.0 4.8 0.00 0.00 0.00 89 1012.1
20260509134604 15 280 3.2 8.0 0.00 0.00 0.00 89 1012.1
20260509134102 15 269 1.6 8.0 0.00 0.00 0.00 89 1012.1
20260509133603 15 261 4.8 8.0 0.00 0.00 0.00 89 1012.1
20260509133329 15 263 0.0 4.8 0.00 0.00 0.00 89 1011.9
20260509132604 15 272 1.6 4.8 0.00 0.00 0.00 89 1012.0
20260509132102 15 262 1.6 4.8 0.00 0.00 0.00 89 1011.9
20260509131604 15 326 4.8 4.8 0.00 0.00 0.00 88 1011.8
20260509131104 15 290 3.2 4.8 0.00 0.00 0.00 89 1011.8
20260509130604 15 291 3.2 3.2 0.00 0.00 0.00 89 1011.9
20260509125602 15 265 0.0 3.2 0.00 0.00 0.00 90 1011.9
20260509125103 15 283 3.2 3.2 0.00 0.00 0.00 90 1011.9
20260509124603 15 263 1.6 3.2 0.00 0.00 0.00 90 1011.9
20260509124102 15 252 1.6 4.8 0.00 0.00 0.00 90 1011.9
20260509123601 15 259 4.8 9.7 0.00 0.00 0.00 89 1011.9
20260509123102 15 257 0.0 9.7 0.00 0.00 0.00 89 1011.9
20260509122604 15 306 6.4 8.0 0.00 0.00 0.00 89 1011.9
20260509122101 15 301 0.0 9.7 0.00 0.00 0.00 89 1011.8
20260509121824 15 273 3.2 9.7 0.00 0.00 0.00 89 1011.8
20260509121102 15 268 3.2 3.2 0.00 0.00 0.00 89 1011.8
20260509120601 15 252 0.0 3.2 0.00 0.00 0.00 89 1011.8
20260509120101 15 252 0.0 3.2 0.00 0.00 0.00 89 1011.9
20260509115601 15 263 0.0 0.0 0.00 0.00 0.00 89 1011.7
20260509115102 15 261 0.0 0.0 0.00 0.00 0.00 90 1011.7
20260509114603 15 262 0.0 4.8 0.00 0.00 0.00 90 1011.8
20260509114100 15 276 0.0 4.8 0.00 0.00 0.00 90 1011.7
20260509113817 15 273 3.2 4.8 0.00 0.00 0.00 90 1011.7
20260509113321 15 279 4.8 4.8 0.00 0.00 0.00 90 1011.7
20260509112601 15 272 1.6 4.8 0.00 0.00 0.00 90 1011.8
20260509112101 15 268 3.2 8.0 0.00 0.00 0.00 90 1011.8
20260509111100 15 263 3.2 3.2 0.00 0.00 0.00 90 1011.9
20260509110603 15 266 1.6 3.2 0.00 0.00 0.00 90 1011.9
20260509110100 15 259 1.6 3.2 0.00 0.00 0.00 90 1012.0
20260509105059 15 243 1.6 4.8 0.00 0.00 0.00 90 1012.0
20260509104559 15 266 1.6 4.8 0.00 0.00 0.00 90 1011.9
20260509104101 15 244 0.0 1.6 0.00 0.00 0.00 90 1011.9
20260509103821 15 245 0.0 4.8 0.00 0.00 0.00 90 1011.8
20260509103059 15 252 1.6 4.8 0.00 0.00 0.00 90 1011.8
20260509102559 15 262 0.0 3.2 0.00 0.00 0.00 90 1011.9
20260509102059 15 252 0.0 8.0 0.00 0.00 0.00 90 1011.9
20260509101558 15 248 1.6 8.0 0.00 0.00 0.00 90 1012.0
20260509101059 15 264 3.2 4.8 0.00 0.00 0.00 90 1012.0
20260509100107 15 324 3.2 4.8 0.00 0.00 0.00 90 1011.9
20260509095608 15 279 0.0 8.0 0.00 0.00 0.00 90 1012.0
20260509095108 15 314 3.2 8.0 0.00 0.00 0.00 90 1011.9
20260509094608 15 261 3.2 3.2 0.00 0.00 0.00 90 1012.0
20260509094107 15 263 0.0 0.0 0.00 0.00 0.00 90 1012.0
20260509093609 16 253 0.0 0.0 0.00 0.00 0.00 90 1012.2
20260509093107 16 224 0.0 1.6 0.00 0.00 0.00 90 1012.2
20260509092606 16 252 0.0 4.8 0.00 0.00 0.00 90 1012.2
20260509092106 16 267 1.6 4.8 0.00 0.00 0.00 90 1012.3
20260509091826 16 257 1.6 3.2 0.00 0.00 0.00 90 1012.3
20260509091109 16 256 0.0 3.2 0.00 0.00 0.00 90 1012.3
20260509090605 16 260 1.6 4.8 0.00 0.00 0.00 90 1012.4
20260509090108 16 256 1.6 4.8 0.00 0.00 0.00 90 1012.4
20260509085607 16 262 0.0 4.8 0.00 0.00 0.00 90 1012.5
20260509085108 16 264 0.0 0.0 0.00 0.00 0.00 90 1012.4
20260509084607 16 266 0.0 3.2 0.00 0.00 0.00 90 1012.6
20260509083607 16 251 0.0 1.6 0.00 0.00 0.00 90 1012.7
20260509083106 16 267 0.0 8.0 0.00 0.00 0.00 90 1012.6
20260509082606 16 245 0.0 8.0 0.00 0.00 0.00 90 1012.6
20260509082105 16 206 4.8 8.0 0.00 0.00 0.00 90 1012.5
20260509081106 16 252 0.0 8.0 0.00 0.00 0.00 90 1012.6
20260509080605 16 256 3.2 8.0 0.00 0.00 0.00 90 1012.7
20260509080105 16 301 1.6 4.8 0.00 0.00 0.00 90 1012.7
20260509075604 16 263 0.0 4.8 0.00 0.00 0.00 90 1012.7
20260509075106 16 269 1.6 1.6 0.00 0.00 0.00 90 1012.7
20260509074832 16 271 0.0 1.6 0.00 0.00 0.00 89 1012.8
20260509074104 16 257 0.0 4.8 0.00 0.00 0.00 89 1012.9
20260509073604 16 252 0.0 8.0 0.00 0.00 0.00 90 1012.9
20260509073330 16 209 4.8 8.0 0.00 0.00 0.00 90 1012.9
20260509072605 16 249 0.0 1.6 0.00 0.00 0.00 89 1012.8
20260509072104 16 248 0.0 4.8 0.00 0.00 0.00 89 1012.9
20260509071828 16 254 1.6 4.8 0.00 0.00 0.00 89 1013.0
20260509071104 16 225 3.2 8.0 0.00 0.00 0.00 89 1013.0
20260509070605 16 238 1.6 8.0 0.00 0.00 0.00 89 1013.0
20260509070105 16 247 0.0 4.8 0.00 0.00 0.00 89 1013.1
20260509065603 16 270 0.0 8.0 0.00 0.00 0.00 89 1013.1
20260509065105 16 276 1.6 8.0 0.00 0.00 0.00 89 1013.2
20260509064604 16 268 1.6 8.0 0.00 0.00 0.00 89 1013.3
20260509064103 16 265 1.6 8.0 0.00 0.00 0.00 89 1013.2
20260509063603 16 254 3.2 8.0 0.00 0.00 0.00 89 1013.2
20260509063104 16 275 3.2 8.0 0.00 0.00 0.00 89 1013.2
20260509062603 16 267 1.6 4.8 0.00 0.00 0.00 89 1013.2
20260509062102 16 274 1.6 3.2 0.00 0.00 0.00 89 1013.1
20260509061603 16 267 0.0 0.0 0.00 0.00 0.00 89 1013.1
20260509061104 16 256 0.0 3.2 0.00 0.00 0.00 89 1013.2
20260509060605 16 273 0.0 3.2 0.00 0.00 0.00 89 1013.2
20260509055602 16 258 1.6 8.0 0.00 0.00 0.00 89 1013.3
20260509055333 16 263 1.6 8.0 0.00 0.00 0.00 89 1013.3
20260509054604 16 266 0.0 8.0 0.00 0.00 0.00 89 1013.3
20260509054101 16 296 1.6 8.0 0.00 0.00 0.00 89 1013.3
20260509053601 16 321 3.2 8.0 0.00 0.00 0.00 89 1013.3
20260509053103 16 255 0.0 8.0 0.00 0.00 0.00 89 1013.3
20260509052604 16 305 3.2 9.7 0.00 0.00 0.00 89 1013.4
20260509052103 16 278 1.6 9.7 0.00 0.00 0.00 89 1013.4